EW5167 Weather Reports


time (UTC)temp
C
wind
direction
speed
KPH
gust
KPH
rain 1hr
cm
rain 24hr
cm
rain mn
cm
humidity
%
barometer
mb
20260507151539 12 0 0.0 1.6 0.00 0.00 0.00 76 1012.5
20260507151020 12 0 0.0 1.6 0.00 0.00 0.00 77 1012.5
20260507150520 12 0 0.0 1.6 0.00 0.00 0.00 72 1012.5
20260507150041 12 0 0.0 3.2 0.00 0.00 0.00 76 1012.6
20260507145519 12 0 0.0 3.2 0.00 0.00 0.00 75 1012.7
20260507145022 12 0 0.0 3.2 0.00 0.00 0.00 73 1012.8
20260507144535 12 44 0.0 3.2 0.00 0.00 0.00 73 1012.8
20260507144019 12 0 0.0 4.8 0.00 0.00 0.00 72 1012.9
20260507143521 12 78 1.6 4.8 0.00 0.00 0.00 72 1012.8
20260507143039 12 0 0.0 3.2 0.00 0.00 0.00 74 1012.9
20260507142519 12 0 0.0 3.2 0.00 0.00 0.00 76 1013.1
20260507142019 12 261 0.0 3.2 0.00 0.00 0.00 80 1013.1
20260507141559 12 0 0.0 3.2 0.00 0.00 0.00 80 1013.0
20260507141019 12 261 0.0 3.2 0.00 0.00 0.00 79 1013.1
20260507140519 12 261 0.0 3.2 0.00 0.00 0.00 80 1013.1
20260507140042 12 0 0.0 3.2 0.00 0.00 0.00 82 1013.1
20260507135519 12 0 0.0 1.6 0.00 0.00 0.00 83 1013.0
20260507135023 12 0 0.0 4.8 0.00 0.00 0.00 82 1013.2
20260507134539 11 0 0.0 4.8 0.00 0.00 0.00 81 1013.3
20260507134018 11 261 0.0 4.8 0.00 0.00 0.00 83 1013.3
20260507133519 12 0 0.0 0.0 0.00 0.00 0.00 84 1013.2
20260507133038 11 0 0.0 3.2 0.00 0.00 0.00 84 1013.3
20260507132524 11 0 0.0 3.2 0.00 0.00 0.00 85 1013.3
20260507132018 12 0 0.0 3.2 0.00 0.00 0.00 85 1013.3
20260507131538 12 0 0.0 3.2 0.00 0.00 0.00 85 1013.2
20260507131019 12 0 0.0 3.2 0.00 0.00 0.00 85 1013.2
20260507130520 12 0 0.0 3.2 0.00 0.00 0.00 86 1013.2
20260507130033 11 261 0.0 3.2 0.00 0.00 0.00 86 1013.2
20260507125519 12 0 0.0 1.6 0.00 0.00 0.00 87 1013.1
20260507125019 12 0 0.0 1.6 0.00 0.00 0.00 89 1013.0
20260507124539 12 0 0.0 1.6 0.00 0.00 0.00 88 1012.9
20260507124020 12 0 0.0 1.6 0.00 0.00 0.00 88 1012.8
20260507123519 12 0 0.0 3.2 0.00 0.00 0.00 88 1013.0
20260507123042 12 0 0.0 3.2 0.00 0.00 0.00 88 1013.1
20260507122518 11 0 0.0 3.2 0.00 0.00 0.00 88 1013.0
20260507122018 12 261 0.0 3.2 0.00 0.00 0.00 89 1012.9
20260507121538 12 0 0.0 1.6 0.00 0.00 0.00 89 1012.8
20260507121019 11 0 0.0 1.6 0.00 0.00 0.00 89 1012.8
20260507120518 11 0 0.0 1.6 0.00 0.00 0.00 89 1012.7
20260507120043 11 0 0.0 1.6 0.00 0.00 0.00 89 1012.8
20260507115520 12 0 0.0 0.0 0.00 0.00 0.00 89 1013.0
20260507115019 11 0 0.0 1.6 0.00 0.00 0.00 89 1013.0
20260507114543 11 0 0.0 1.6 0.00 0.00 0.00 89 1013.0
20260507114020 11 0 0.0 1.6 0.00 0.00 0.00 90 1012.7
20260507113521 11 0 0.0 0.0 0.00 0.00 0.00 90 1012.5
20260507113046 11 0 0.0 0.0 0.00 0.00 0.00 90 1012.5
20260507112517 11 0 0.0 1.6 0.00 0.00 0.00 90 1012.5
20260507112017 11 0 0.0 1.6 0.00 0.00 0.00 90 1012.4
20260507111539 11 0 0.0 1.6 0.00 0.00 0.00 90 1012.3
20260507111020 11 161 0.0 1.6 0.00 0.00 0.00 90 1012.4
20260507110522 11 0 0.0 1.6 0.00 0.00 0.00 90 1012.5
20260507110039 11 0 0.0 1.6 0.00 0.00 0.00 90 1012.5
20260507105519 11 0 0.0 0.0 0.00 0.00 0.00 90 1012.3
20260507105020 11 0 0.0 0.0 0.00 0.00 0.00 90 1012.4
20260507104535 11 0 0.0 0.0 0.00 0.00 0.00 90 1012.5
20260507104020 11 0 0.0 1.6 0.00 0.00 0.00 90 1012.3
20260507103519 12 0 0.0 1.6 0.00 0.00 0.00 90 1012.1
20260507103044 12 0 0.0 0.0 0.00 0.00 0.00 90 1012.2
20260507102519 12 0 0.0 0.0 0.00 0.00 0.00 90 1012.2
20260507102021 12 0 0.0 0.0 0.00 0.00 0.00 90 1012.1
20260507101541 12 0 0.0 0.0 0.00 0.00 0.00 90 1012.1
20260507101020 12 0 0.0 0.0 0.00 0.00 0.00 90 1012.1
20260507100520 12 0 0.0 0.0 0.00 0.00 0.00 90 1012.0
20260507100042 12 0 0.0 0.0 0.00 0.00 0.00 90 1012.1
20260507095520 12 0 0.0 0.0 0.00 0.00 0.00 90 1012.1
20260507095020 12 0 0.0 0.0 0.00 0.00 0.00 90 1011.9
20260507094539 12 0 0.0 0.0 0.00 0.00 0.00 90 1011.8
20260507094019 12 0 0.0 0.0 0.00 0.00 0.00 90 1011.9
20260507093522 12 0 0.0 0.0 0.00 0.00 0.00 90 1011.9
20260507093036 12 0 0.0 0.0 0.00 0.00 0.00 90 1012.0
20260507092520 12 0 0.0 0.0 0.00 0.00 0.00 90 1012.0
20260507092023 12 0 0.0 0.0 0.00 0.00 0.00 90 1011.9
20260507091544 12 0 0.0 0.0 0.00 0.00 0.00 90 1011.6
20260507091023 12 0 0.0 0.0 0.00 0.00 0.00 90 1011.5
20260507090520 12 0 0.0 0.0 0.00 0.00 0.00 90 1011.6
20260507090044 12 0 0.0 0.0 0.00 0.00 0.00 90 1011.6
20260507085520 12 0 0.0 0.0 0.00 0.00 0.00 89 1011.8
20260507085020 12 0 0.0 0.0 0.00 0.00 0.00 89 1011.7
20260507084539 12 0 0.0 0.0 0.00 0.00 0.00 89 1011.8
20260507084020 12 0 0.0 0.0 0.00 0.00 0.00 90 1011.8
20260507083522 12 0 0.0 0.0 0.00 0.00 0.00 89 1011.5
20260507083039 12 0 0.0 0.0 0.00 0.00 0.00 89 1011.5
20260507082520 12 0 0.0 0.0 0.00 0.00 0.00 89 1011.9
20260507082019 12 0 0.0 0.0 0.00 0.00 0.00 89 1011.6
20260507081543 12 0 0.0 0.0 0.00 0.00 0.00 89 1011.5
20260507081023 12 0 0.0 0.0 0.00 0.00 0.00 89 1011.6
20260507080522 12 0 0.0 0.0 0.00 0.00 0.00 89 1011.6
20260507080045 12 0 0.0 1.6 0.00 0.00 0.00 89 1011.3
20260507075520 12 0 0.0 1.6 0.00 0.00 0.00 89 1011.3
20260507075022 12 0 0.0 3.2 0.00 0.00 0.00 89 1011.1
20260507074540 12 163 0.0 3.2 0.00 0.00 0.00 89 1011.1
20260507074024 12 0 1.6 6.4 0.00 0.00 0.00 89 1011.2
20260507073520 12 0 0.0 6.4 0.00 0.00 0.00 89 1011.3
20260507073041 12 0 0.0 3.2 0.00 0.00 0.00 89 1011.3
20260507072520 12 0 0.0 4.8 0.00 0.00 0.00 89 1011.1
20260507072021 12 0 0.0 4.8 0.00 0.00 0.00 89 1011.0
20260507071540 12 93 0.0 4.8 0.00 0.00 0.00 89 1011.1
20260507071022 12 0 0.0 4.8 0.00 0.00 0.00 89 1011.0
20260507070522 12 0 0.0 4.8 0.00 0.00 0.00 90 1011.1
20260507070042 12 198 0.0 4.8 0.00 0.00 0.00 90 1011.0
20260507065520 12 0 0.0 4.8 0.00 0.00 0.00 90 1011.1
20260507065021 13 0 0.0 3.2 0.00 0.00 0.00 90 1010.9
20260507064542 13 202 0.0 3.2 0.00 0.00 0.00 90 1011.1
20260507064019 13 0 0.0 3.2 0.00 0.00 0.00 90 1011.1
20260507063521 13 0 0.0 3.2 0.00 0.00 0.00 90 1011.2
20260507063055 13 0 0.0 6.4 0.00 0.00 0.00 89 1011.1
20260507062524 13 0 0.0 6.4 0.00 0.00 0.00 89 1010.9
20260507062020 13 0 1.6 6.4 0.00 0.00 0.00 89 1011.1
20260507061544 13 111 0.0 11.3 0.00 0.00 0.00 90 1011.2
20260507061021 13 0 0.0 11.3 0.00 0.00 0.00 89 1010.9
20260507060520 13 229 1.6 8.0 0.00 0.00 0.00 89 1010.9
20260507060039 13 221 1.6 6.4 0.00 0.00 0.00 89 1010.8
20260507055522 13 180 0.0 6.4 0.00 0.00 0.00 89 1010.7
20260507055021 13 187 0.0 6.4 0.00 0.00 0.00 89 1010.7
20260507054538 13 0 0.0 3.2 0.00 0.00 0.00 89 1010.6
20260507054022 13 0 0.0 4.8 0.00 0.00 0.00 89 1010.4
20260507053521 13 0 1.6 4.8 0.00 0.00 0.00 89 1010.5
20260507053039 13 0 0.0 3.2 0.00 0.00 0.00 89 1011.1
20260507052520 13 0 0.0 3.2 0.00 0.00 0.00 89 1010.9
20260507052022 14 0 0.0 3.2 0.00 0.00 0.00 89 1010.8
20260507051539 14 96 0.0 4.8 0.00 0.00 0.00 88 1011.0
20260507051024 14 0 0.0 4.8 0.00 0.00 0.00 89 1010.8
20260507050521 14 93 0.0 4.8 0.00 0.00 0.00 88 1010.9
20260507050047 14 93 0.0 4.8 0.00 0.00 0.00 88 1010.9
20260507045521 14 0 0.0 4.8 0.00 0.00 0.00 88 1011.1
20260507045020 14 0 0.0 6.4 0.00 0.00 0.00 88 1010.7
20260507044543 14 0 0.0 6.4 0.00 0.00 0.00 87 1010.5
20260507044021 15 95 3.2 11.3 0.00 0.00 0.00 87 1010.7
20260507043521 15 333 1.6 11.3 0.00 0.00 0.00 87 1011.0
20260507043041 15 99 1.6 4.8 0.00 0.00 0.00 87 1011.2
20260507042519 15 0 0.0 6.4 0.00 0.00 0.00 86 1011.3
20260507042021 15 0 1.6 6.4 0.00 0.00 0.00 85 1011.1
20260507041544 15 80 1.6 9.7 0.00 0.00 0.00 85 1011.1
20260507041022 16 318 1.6 11.3 0.00 0.00 0.00 84 1011.4
20260507040521 16 123 1.6 11.3 0.00 0.00 0.00 83 1010.7
20260507040050 16 63 1.6 6.4 0.00 0.00 0.00 83 1011.1
20260507035519 17 258 1.6 6.4 0.00 0.00 0.00 82 1010.6
20260507035019 17 280 1.6 12.9 0.00 0.00 0.00 82 1010.5
20260507034602 17 85 1.6 12.9 0.00 0.00 0.00 82 1010.5
20260507034020 17 91 0.0 6.4 0.00 0.00 0.00 82 1010.4
20260507033523 17 0 0.0 9.7 0.00 0.00 0.00 82 1010.4
20260507033058 17 0 1.6 11.3 0.00 0.00 0.00 83 1010.5
20260507032522 17 81 4.8 11.3 0.00 0.00 0.00 83 1010.5
20260507032021 17 225 1.6 11.3 0.00 0.00 0.00 84 1010.7
20260507031535 17 44 1.6 11.3 0.00 0.00 0.00 84 1010.6
20260507031020 18 0 0.0 9.7 0.00 0.00 0.00 85 1010.5
20260507030522 17 0 1.6 11.3 0.00 0.00 0.00 85 1010.3
20260507030045 17 104 3.2 11.3 0.00 0.00 0.00 86 1010.1
20260507025522 18 225 3.2 8.0 0.00 0.00 0.00 86 1009.7
20260507025019 18 87 0.0 6.4 0.00 0.00 0.00 87 1009.7
20260507024553 18 87 0.0 6.4 0.00 0.00 0.00 87 1009.9
20260507024021 18 0 0.0 3.2 0.00 0.00 0.00 88 1010.1
20260507023521 18 0 0.0 3.2 0.00 0.00 0.00 88 1010.1
20260507023039 18 0 0.0 3.2 0.00 0.00 0.00 87 1009.9
20260507022521 18 0 0.0 4.8 0.00 0.00 0.00 88 1009.8
20260507022022 18 154 0.0 4.8 0.00 0.00 0.00 88 1009.9
20260507021539 18 0 0.0 3.2 0.00 0.00 0.00 88 1009.8
20260507021019 18 0 0.0 3.2 0.00 0.00 0.00 88 1009.4
20260507020518 18 0 0.0 0.0 0.00 0.00 0.00 88 1009.3
20260507020037 18 0 0.0 4.8 0.00 0.00 0.00 89 1009.3
20260507015519 18 0 0.0 4.8 0.00 0.00 0.00 89 1009.3
20260507015018 18 219 0.0 4.8 0.00 0.00 0.00 88 1009.6
20260507014535 19 0 0.0 3.2 0.00 0.00 0.00 88 1009.7
20260507014018 19 0 0.0 8.0 0.00 0.00 0.00 88 1009.8
20260507013518 19 219 0.0 8.0 0.00 0.00 0.00 88 1009.3
20260507013042 19 220 1.6 8.0 0.00 0.00 0.00 88 1009.4
20260507012518 19 0 0.0 0.0 0.00 0.00 0.00 88 1009.6
20260507012018 19 0 0.0 0.0 0.00 0.00 0.00 88 1009.6
20260507011540 19 0 0.0 0.0 0.00 0.00 0.00 87 1009.5
20260507011017 19 0 0.0 0.0 0.00 0.00 0.00 87 1009.6
20260507010521 19 0 0.0 0.0 0.00 0.00 0.00 87 1009.7
20260507010041 19 0 0.0 0.0 0.00 0.00 0.00 87 1009.7
20260507005521 19 0 0.0 0.0 0.00 0.00 0.00 87 1009.7
20260507005019 19 0 0.0 0.0 0.00 0.00 0.00 87 1009.6
20260507004535 19 0 0.0 1.6 0.00 0.00 0.00 87 1009.5
20260507004019 19 0 0.0 1.6 0.00 0.00 0.00 87 1009.4
20260507003519 19 0 0.0 0.0 0.00 0.00 0.00 87 1009.4
20260507003035 19 0 0.0 3.2 0.00 0.00 0.00 87 1009.3
20260507002518 19 0 0.0 3.2 0.00 0.00 0.00 87 1009.4
20260507002018 19 0 0.0 3.2 0.00 0.00 0.00 86 1009.1
20260507001603 20 122 0.0 1.6 0.00 0.00 0.00 86 1009.4
20260507001018 20 0 0.0 3.2 0.00 0.00 0.00 86 1009.3
20260507000518 20 0 0.0 3.2 0.00 0.00 0.00 86 1009.2
20260507000040 20 0 0.0 3.2 0.00 0.00 0.00 86 1009.1
20260506235517 20 0 0.0 3.2 0.00 0.00 0.00 86 1009.0
20260506235021 20 0 0.0 3.2 0.00 0.00 0.00 86 1008.8
20260506234549 20 99 0.0 1.6 0.00 0.00 0.00 86 1008.9
20260506234021 20 0 0.0 1.6 0.00 0.00 0.00 85 1008.9
20260506233518 20 0 0.0 1.6 0.00 0.00 0.00 85 1008.7
20260506233039 20 0 0.0 3.2 0.00 0.00 0.00 85 1008.7
20260506232517 20 0 0.0 3.2 0.00 0.00 0.00 85 1008.5
20260506232018 20 0 0.0 1.6 0.00 0.00 0.00 84 1008.6
20260506231537 20 0 0.0 1.6 0.00 0.00 0.00 84 1008.6
20260506231018 20 0 0.0 1.6 0.00 0.00 0.00 84 1008.6
20260506230519 20 0 0.0 1.6 0.00 0.00 0.00 83 1008.5
20260506230043 21 0 0.0 3.2 0.00 0.00 0.00 83 1008.5
20260506225518 21 0 0.0 3.2 0.00 0.00 0.00 82 1008.5
20260506225019 21 0 0.0 4.8 0.00 0.00 0.00 82 1008.6
20260506224549 21 0 0.0 4.8 0.00 0.00 0.00 82 1008.5
20260506224019 21 288 0.0 3.2 0.00 0.00 0.00 82 1008.5
20260506223517 21 0 0.0 1.6 0.00 0.00 0.00 82 1008.4
20260506223039 21 0 0.0 1.6 0.00 0.00 0.00 82 1008.4
20260506222518 21 0 0.0 4.8 0.00 0.00 0.00 81 1008.5
20260506222018 21 0 0.0 4.8 0.00 0.00 0.00 81 1008.6
20260506221535 21 65 1.6 4.8 0.00 0.00 0.00 81 1008.5
20260506221019 21 0 0.0 4.8 0.00 0.00 0.00 80 1008.5
20260506220518 21 0 1.6 6.4 0.00 0.00 0.00 80 1008.5
20260506220044 21 102 1.6 9.7 0.00 0.00 0.00 81 1008.6
20260506215522 21 300 0.0 9.7 0.00 0.00 0.00 81 1008.6
20260506215018 21 266 1.6 9.7 0.00 0.00 0.00 80 1008.6
20260506214540 21 305 1.6 9.7 0.00 0.00 0.00 80 1008.4
20260506214019 21 115 3.2 9.7 0.00 0.00 0.00 80 1008.5
20260506213518 21 280 3.2 8.0 0.00 0.00 0.00 80 1008.6
20260506213038 21 263 1.6 11.3 0.00 0.00 0.00 81 1008.6
20260506212520 21 250 0.0 11.3 0.00 0.00 0.00 81 1008.5
20260506212021 21 308 3.2 14.5 0.00 0.00 0.00 81 1008.5
20260506211536 21 0 3.2 14.5 0.00 0.00 0.00 80 1008.5
20260506211018 21 264 3.2 14.5 0.00 0.00 0.00 81 1008.6
20260506210518 21 0 3.2 11.3 0.00 0.00 0.00 81 1008.5
20260506210035 21 0 1.6 11.3 0.00 0.00 0.00 81 1008.3
20260506205520 21 295 1.6 14.5 0.00 0.00 0.00 80 1008.4
20260506205018 21 125 4.8 14.5 0.00 0.00 0.00 80 1008.3
20260506204537 21 66 3.2 11.3 0.00 0.00 0.00 81 1008.3
20260506204019 21 279 4.8 11.3 0.00 0.00 0.00 80 1008.2
20260506203519 21 289 3.2 11.3 0.00 0.00 0.00 81 1008.2
20260506203040 21 252 1.6 12.9 0.00 0.00 0.00 81 1008.1
20260506202520 21 105 3.2 12.9 0.00 0.00 0.00 81 1008.2
20260506202018 20 345 3.2 16.1 0.00 0.00 0.00 81 1008.2
20260506201539 20 294 4.8 16.1 0.00 0.00 0.00 80 1008.1
20260506201018 20 277 3.2 9.7 0.00 0.00 0.00 81 1008.2
20260506200517 20 302 1.6 14.5 0.00 0.00 0.00 81 1008.2
20260506200036 20 221 3.2 14.5 0.00 0.00 0.00 81 1008.3
20260506195518 20 284 3.2 14.5 0.00 0.00 0.00 81 1008.2
20260506195020 20 44 3.2 14.5 0.00 0.00 0.00 81 1008.3
20260506194551 20 25 3.2 11.3 0.00 0.00 0.00 82 1008.3
20260506194023 20 317 3.2 11.3 0.00 0.00 0.00 82 1008.3
20260506193518 20 0 1.6 14.5 0.00 0.00 0.00 81 1008.4
20260506193049 20 262 1.6 14.5 0.00 0.00 0.00 81 1008.4
20260506192521 20 282 6.4 14.5 0.00 0.00 0.00 81 1008.6
20260506192019 20 70 1.6 14.5 0.00 0.00 0.00 82 1008.4
20260506191541 20 125 1.6 9.7 0.00 0.00 0.00 82 1008.6
20260506191020 20 287 1.6 9.7 0.00 0.00 0.00 82 1008.8
20260506190520 20 248 1.6 17.7 0.00 0.00 0.00 82 1008.6
20260506190039 19 196 3.2 17.7 0.00 0.00 0.00 82 1009.0
20260506185520 19 263 3.2 12.9 0.00 0.00 0.00 82 1009.1
20260506185021 19 274 3.2 12.9 0.00 0.00 0.00 82 1009.1
20260506184545 19 243 4.8 12.9 0.00 0.00 0.00 82 1009.2
20260506184019 19 307 1.6 9.7 0.00 0.00 0.00 82 1009.1
20260506183521 19 252 3.2 12.9 0.00 0.00 0.00 82 1009.2
20260506183046 19 305 3.2 16.1 0.00 0.00 0.00 82 1009.1
20260506182520 19 251 1.6 16.1 0.00 0.00 0.00 82 1009.1
20260506182026 19 231 1.6 11.3 0.00 0.00 0.00 82 1009.0
20260506181559 19 278 1.6 14.5 0.00 0.00 0.00 82 1008.9
20260506181021 19 255 3.2 14.5 0.00 0.00 0.00 82 1009.2
20260506180521 19 207 4.8 14.5 0.00 0.00 0.00 83 1009.3
20260506180042 18 101 3.2 12.9 0.00 0.00 0.00 83 1009.3
20260506175525 18 259 4.8 12.9 0.00 0.00 0.00 82 1009.3
20260506175021 18 329 3.2 12.9 0.00 0.00 0.00 82 1009.3
20260506174538 18 302 4.8 12.9 0.00 0.00 0.00 82 1009.3
20260506174021 18 0 4.8 12.9 0.00 0.00 0.00 82 1009.4
20260506173523 18 15 4.8 11.3 0.00 0.00 0.00 82 1009.4
20260506173052 18 230 3.2 11.3 0.00 0.00 0.00 84 1009.3
20260506172520 18 290 4.8 11.3 0.00 0.00 0.00 83 1009.4
20260506172020 18 259 3.2 17.7 0.00 0.00 0.00 84 1009.3
20260506171553 18 31 6.4 17.7 0.00 0.00 0.00 83 1009.3
20260506171017 18 266 3.2 17.7 0.00 0.00 0.00 84 1009.3
20260506170520 18 284 3.2 17.7 0.00 0.00 0.00 84 1009.4
20260506170045 18 275 3.2 14.5 0.00 0.00 0.00 83 1009.5
20260506165520 18 195 6.4 20.9 0.00 0.00 0.00 83 1009.7
20260506165022 18 259 4.8 20.9 0.00 0.00 0.00 84 1009.6
20260506164539 18 266 6.4 40.2 0.00 0.00 0.00 84 1009.6
20260506164021 18 257 6.4 40.2 0.00 0.00 0.00 84 1009.6
20260506163521 18 306 4.8 14.5 0.00 0.00 0.00 85 1009.5
20260506163036 18 282 3.2 17.7 0.00 0.00 0.00 86 1009.7
20260506162520 18 55 4.8 17.7 0.00 0.00 0.00 86 1009.8
20260506162023 17 250 4.8 11.3 0.00 0.00 0.00 88 1009.6
20260506161536 17 195 1.6 16.1 0.00 0.00 0.00 88 1009.7
20260506161021 17 350 3.2 16.1 0.00 0.00 0.00 88 1009.7
20260506160519 17 164 3.2 12.9 0.00 0.00 0.00 88 1009.7
20260506160039 17 336 1.6 22.5 0.00 0.00 0.00 88 1009.9
20260506155520 17 296 4.8 22.5 0.00 0.00 0.00 88 1009.8
20260506155020 17 309 4.8 12.9 0.00 0.00 0.00 89 1009.7
20260506154548 17 250 3.2 16.1 0.00 0.00 0.00 89 1010.0
20260506154018 17 0 3.2 16.1 0.00 0.00 0.00 89 1010.1
20260506153519 17 265 3.2 14.5 0.00 0.00 0.00 89 1010.0
20260506153039 17 195 3.2 12.9 0.00 0.00 0.00 89 1009.9
20260506152518 17 330 1.6 11.3 0.00 0.00 0.00 90 1010.0
20260506152021 16 279 3.2 17.7 0.00 0.00 0.00 90 1010.2